Location: Alsip
(41.6689°N, 87.7387°W)
Time: 14:22:03
(UTC+00:00)

Cosmos 1725 Rocket - Pass Details

Date: 14 July 2020
Orbit: 963 x 989 km, 82.9° (Epoch: 04 August)

Event Time Altitude Azimuth Distance (km) Brightness Sun altitude
Exits shadow 08:19:51 31° 223° (SW) 1,640 4.6 -18.6°
Maximum altitude 08:22:38 52° 282° (WNW) 1,198 4.3 -18.3°
Drops below altitude 10° 08:28:43 10° 358° (N) 2,732 7.1 -17.6°
Sets 08:31:20 0° 3° (N) 3,688 8.0 -17.4°
